Location: Dos Palmas
(32.4468°N, 116.8732°W)
Time: 00:21:22
(UTC+00:00)

Cosmos 1782 - Pass Details

Date: 20 June 2021
Orbit: 537 x 550 km, 82.5° (Epoch: 01 August)

Event Time Altitude Azimuth Distance (km) Brightness Sun altitude
Rises 10:11:43 0° 360° (N) 2,714 7.2 -24.6°
Reaches altitude 10° 10:13:56 10° 6° (N) 1,820 6.2 -24.3°
Maximum altitude 10:17:49 50° 82° (E) 704 3.5 -23.8°
Enters shadow 10:18:31 44° 117° (ESE) 767 3.5 -23.7°
